[[{"header":{"parameterUnit":"m.s-1","parameterCategory":1,"la1":30.2991,"la2":30.254,"lo1":-89.0895,"lo2":-89.0444,"dy":0.0017,"dx":0.0017,"nx":28,"ny":28,"refTime":"2024-08-11T21:00:00:Z","depth":0,"parameterNumber":2,"parameterNumberName":"U-component_of_WINDS"},"data":[0,0,0,0,0,0,0,0,0,0,0,0,0,0,0,0,0,0,0,0,0,0,0,0,0,0,0,0,0,0,0,0,0,0,0,0,0,0,0,0,0,0,0,0,0,0,0,0,0,0,0,0,0,0,0,0,0,0,1.385,1.3851,0,1.3981,1.3983,1.3984,1.4003,1.4001,1.4,1.3999,1.4136,1.4141,1.4146,0,0,0,0,0,0,0,0,0,0,0,0,0,1.3615,1.3619,1.385,1.3851,1.3853,1.3981,1.3983,1.3985,1.4003,1.4001,1.4,1.3998,1.4135,1.414,1.4146,0,0,0,0,0,0,0,0,0,0,0,0,0,1.3729,1.3621,1.3849,1.3877,1.3881,1.3981,1.3983,1.3985,1.4003,1.4001,1.3999,1.3998,1.4133,1.414,1.4147,1.4228,0,0,1.4169,1.4172,0,0,0,0,0,0,0,0,1.3722,1.3738,1.3872,1.3876,1.388,1.3974,1.3951,1.4067,1.4004,1.3957,1.3999,1.3997,1.4084,1.4095,1.4124,1.4235,1.4241,1.4169,1.4174,1.4177,1.4179,0,0,0,0,0,0,0,1.3715,1.3732,1.3902,1.3874,1.3879,1.3884,1.3898,1.3973,1.4029,1.3961,1.3962,1.3978,1.4086,1.4117,1.4127,1.4243,1.4169,1.4176,1.418,1.4183,1.4426,1.4428,0,0,0,0,0,0,1.3701,1.3725,1.3898,1.3906,1.3795,1.3889,1.3905,1.3946,1.4028,1.4039,1.3979,1.3978,1.4105,1.4119,1.4132,1.4232,1.4177,1.4184,1.4188,1.4424,1.4426,1.4428,0,0,0,0,0,0,1.3696,1.3717,1.3892,1.3816,1.3839,1.3895,1.3941,1.3949,1.398,1.4042,1.4053,1.4,1.4104,1.4122,1.4204,1.4237,1.4187,1.4193,1.4421,1.4424,1.4427,1.4432,0,0,0,0,0,0,1.3689,1.3715,1.3746,1.3817,1.3843,1.3962,1.3943,1.3953,1.3992,1.3992,1.4065,1.4075,1.4104,1.4193,1.4211,1.4246,1.4199,1.4418,1.4423,1.4426,1.4429,1.4435,1.444,0,0,0,0,0,1.3681,1.3743,1.3748,1.3768,1.3883,1.3964,1.3979,1.401,1.3995,1.4027,1.4066,1.4073,1.423,1.4201,1.4222,1.4259,1.4416,1.4421,1.4426,1.4427,1.4434,1.444,0,0,0,0,0,0,1.3676,1.3753,1.3759,1.3846,1.3898,1.3966,1.4008,1.4017,1.4075,1.4073,1.411,1.4126,1.4206,1.4241,1.4207,1.4341,1.4322,1.4331,1.4316,1.4323,1.4328,1.4318,1.4205,0,0,0,0,0,1.3685,1.3743,1.3808,1.3878,1.3904,1.3951,1.3987,1.4007,1.4063,1.4085,1.4131,1.4186,1.4247,1.4287,1.4348,1.4435,1.445,1.447,1.4476,1.448,1.4487,1.4534,1.4544,1.4444,1.4444,1.4444,0,0,1.3704,1.3753,1.3788,1.3878,1.3921,1.398,1.397,1.4034,1.4078,1.4095,1.4175,1.421,1.4274,1.4358,1.4397,1.4389,1.4518,1.4486,1.4489,1.4494,1.454,1.455,1.4558,1.4447,1.4447,1.4446,0,0,1.377,1.3813,1.3876,1.3918,1.3982,1.4013,1.4028,1.4096,1.4119,1.4199,1.4213,1.4267,1.4372,1.4416,1.4453,1.4533,1.454,1.4551,1.458,1.4625,1.4633,1.464,1.4668,1.4677,1.4559,1.4559,1.4559,0,1.3786,1.3876,1.3907,1.397,1.4008,1.4025,1.4089,1.4129,1.421,1.4236,1.4226,1.4358,1.4402,1.4496,1.4515,1.4544,1.4562,1.4543,1.4629,1.4637,1.4644,1.4671,1.4681,1.456,1.4559,1.4559,1.4559,0,1.3891,1.3953,1.3996,1.4072,1.4116,1.4179,1.422,1.426,1.4276,1.4308,1.4388,1.4441,1.4512,1.4536,1.4552,1.4632,1.4625,1.4622,1.4603,1.4654,1.4679,1.469,1.4561,1.456,1.456,1.456,0,0,1.3958,1.405,1.4065,1.4099,1.417,1.4219,1.4282,1.435,1.4383,1.4439,1.4492,1.458,1.4577,1.4618,1.464,1.468,1.4738,1.4671,1.4673,1.4681,1.4828,1.4829,1.4841,1.4744,1.4746,1.4747,1.4822,0,1.4031,1.4144,1.4173,1.4268,1.4325,1.4342,1.4397,1.4446,1.4477,1.4531,1.4566,1.4627,1.4619,1.4643,1.4684,1.4722,1.4768,1.4717,1.4794,1.4796,1.4777,1.4855,1.4857,1.4925,1.4833,1.4834,1.4836,0,1.4132,1.4187,1.4288,1.435,1.4375,1.4424,1.4487,1.4538,1.4595,1.4614,1.4659,1.4676,1.4743,1.472,1.4812,1.4777,1.481,1.4834,1.4837,1.4845,1.4819,1.4864,1.4948,1.4958,1.4852,1.4851,1.485,0,1.4169,1.4269,1.4341,1.437,1.4445,1.4479,1.4512,1.4566,1.4605,1.466,1.4686,1.4749,1.4783,1.4832,1.4866,1.4847,1.4954,1.4935,1.4973,1.4972,1.4995,1.4993,1.5084,1.5017,1.5017,1.5016,1.5016,0,1.4247,1.4307,1.4359,1.4403,1.4472,1.4505,1.4572,1.4605,1.4653,1.4705,1.4723,1.4771,1.4813,1.4867,1.4894,1.4965,1.4981,1.4999,1.5005,1.4997,1.4994,1.5019,1.5015,1.5019,1.5019,1.5018,1.5018,0,1.43,1.4337,1.4417,1.448,1.4498,1.4545,1.46,1.4644,1.4675,1.474,1.4757,1.4806,1.487,1.4909,1.499,1.5008,1.5087,1.5092,1.5067,1.507,1.5105,1.5101,1.5215,1.5231,1.5153,1.5154,1.5155,0,1.4347,1.4394,1.4462,1.4497,1.453,1.4586,1.4625,1.4659,1.4699,1.4765,1.4801,1.4866,1.492,1.5021,1.5065,1.5127,1.5133,1.5169,1.5143,1.5132,1.5133,1.5129,1.5133,1.5173,1.5174,1.5174,1.5175,0,1.4426,1.4441,1.4496,1.4556,1.4601,1.4651,1.4701,1.4729,1.4771,1.4815,1.4879,1.4921,1.5003,1.5067,1.5132,1.5167,1.5178,1.5182,1.5194,1.5186,1.5169,1.5178,1.5078,1.518,1.5179,1.5179,1.5178,1.5178,1.4477,1.4519,1.4572,1.4632,1.4673,1.4718,1.4762,1.4798,1.4852,1.4921,1.4938,1.5005,1.506,1.5149,1.5184,1.5238,1.5233,1.525,1.5254,1.5258,1.5258,1.5161,1.525,1.525,1.525,1.525,1.525,0,1.4556,1.4591,1.4646,1.4713,1.476,1.4765,1.482,1.4858,1.4918,1.4967,1.5019,1.5092,1.5154,1.5202,1.5265,1.5299,1.5306,1.5314,1.5312,1.532,1.526,1.5243,1.5308,1.5308,1.5308,1.5308,1.5308,1.5308,1.4603,1.4673,1.4695,1.4785,1.482,1.4885,1.4916,1.4958,1.4997,1.5078,1.5129,1.5159,1.5208,1.5274,1.5331,1.5344,1.5366,1.5374,1.5387,1.533,1.5324,1.5318,1.5302,1.5378,1.5379,1.5442,1.5443,1.5443]},{"header":{"parameterUnit":"m.s-1","parameterCategory":1,"la1":30.2991,"la2":30.254,"lo1":-89.0895,"lo2":-89.0444,"dy":0.0017,"dx":0.0017,"nx":28,"ny":28,"refTime":"2024-08-11T21:00:00:Z","depth":0,"parameterNumber":3,"parameterNumberName":"V-component_of_WINDS"},"data":[0,0,0,0,0,0,0,0,0,0,0,0,0,0,0,0,0,0,0,0,0,0,0,0,0,0,0,0,0,0,0,0,0,0,0,0,0,0,0,0,0,0,0,0,0,0,0,0,0,0,0,0,0,0,0,0,0,0,3.4052,3.4051,0,3.4004,3.4004,3.4003,3.391,3.3908,3.3906,3.3905,3.3858,3.3858,3.3859,0,0,0,0,0,0,0,0,0,0,0,0,0,3.4064,3.4064,3.4052,3.4051,3.4051,3.4004,3.4004,3.4003,3.391,3.3908,3.3906,3.3904,3.3858,3.3858,3.3859,0,0,0,0,0,0,0,0,0,0,0,0,0,3.4042,3.4064,3.4052,3.3999,3.3993,3.4004,3.4004,3.4003,3.3911,3.3908,3.3905,3.3903,3.3858,3.3858,3.3859,3.3918,0,0,3.3861,3.3861,0,0,0,0,0,0,0,0,3.4043,3.4041,3.4007,3.4002,3.3997,3.396,3.3991,3.3975,3.3912,3.3942,3.3905,3.3901,3.3894,3.3892,3.3889,3.3916,3.3914,3.3861,3.3862,3.3862,3.3862,0,0,0,0,0,0,0,3.4045,3.4043,3.4033,3.4007,3.4,3.3978,3.3972,3.3987,3.3934,3.3939,3.3933,3.3928,3.3891,3.3889,3.3887,3.3914,3.3861,3.3862,3.3862,3.3862,3.3986,3.3989,0,0,0,0,0,0,3.4054,3.4045,3.4034,3.4031,3.4013,3.398,3.3973,3.3975,3.3934,3.3925,3.3931,3.3924,3.3889,3.3887,3.3885,3.3951,3.3862,3.3863,3.3863,3.3983,3.3987,3.399,0,0,0,0,0,0,3.4054,3.4054,3.4036,3.4036,3.4032,3.3982,3.3985,3.3975,3.3973,3.3927,3.3917,3.3938,3.3886,3.3884,3.391,3.3948,3.3863,3.3864,3.398,3.3984,3.3988,3.4085,0,0,0,0,0,0,3.4055,3.4054,3.4076,3.4037,3.4033,3.4062,3.3988,3.3976,3.3974,3.3965,3.3931,3.3923,3.3884,3.391,3.3911,3.3948,3.3864,3.3976,3.3982,3.3987,3.4078,3.4092,3.4103,0,0,0,0,0,3.4056,3.4106,3.4078,3.4077,3.4059,3.4065,3.4062,3.4016,3.3977,3.3999,3.397,3.3924,3.3944,3.3913,3.3914,3.3951,3.3974,3.398,3.3987,3.4072,3.4089,3.4103,0,0,0,0,0,0,3.4151,3.41,3.4068,3.4107,3.4091,3.4049,3.4075,3.4035,3.403,3.4022,3.3965,3.3958,3.3992,3.3974,3.3941,3.4006,3.3952,3.3959,3.4016,3.4032,3.4045,3.4048,3.3865,0,0,0,0,0,3.4177,3.4185,3.414,3.4179,3.4172,3.4125,3.4126,3.4092,3.4073,3.4066,3.4038,3.4022,3.4025,3.4028,3.4027,3.4075,3.4066,3.4101,3.4114,3.4125,3.4131,3.4154,3.4169,3.4011,3.4011,3.4011,0,0,3.4229,3.4202,3.4211,3.4197,3.418,3.4191,3.412,3.4134,3.4141,3.4068,3.409,3.407,3.4048,3.4086,3.41,3.4072,3.4173,3.4133,3.4142,3.4142,3.4162,3.4177,3.4191,3.4015,3.4015,3.4014,0,0,3.4331,3.4311,3.4341,3.4326,3.4301,3.4269,3.4277,3.4241,3.4224,3.4246,3.4191,3.4199,3.4205,3.4191,3.4185,3.4281,3.4239,3.4283,3.435,3.4373,3.4385,3.4396,3.443,3.4442,3.429,3.429,3.429,0,3.4399,3.4412,3.4361,3.4379,3.4374,3.4307,3.4337,3.4325,3.4302,3.4301,3.4269,3.4274,3.4255,3.4287,3.4311,3.4308,3.4315,3.4286,3.4388,3.4398,3.4407,3.4438,3.4451,3.4295,3.4295,3.4294,3.4294,0,3.4498,3.4508,3.4535,3.4513,3.4512,3.4536,3.4488,3.4493,3.4459,3.4431,3.4454,3.4428,3.4421,3.4427,3.4394,3.4455,3.4437,3.4398,3.4342,3.4428,3.4457,3.4469,3.4303,3.4301,3.4299,3.4298,0,0,3.4657,3.4607,3.4618,3.4607,3.4575,3.4582,3.4603,3.4595,3.46,3.4587,3.4603,3.4609,3.4572,3.4565,3.453,3.4551,3.4627,3.4508,3.4506,3.453,3.4692,3.4721,3.4736,3.4599,3.4602,3.4603,3.4693,0,3.4751,3.4782,3.4737,3.4779,3.4787,3.4724,3.4742,3.4725,3.4699,3.4703,3.4675,3.468,3.463,3.4626,3.4643,3.4614,3.4659,3.4607,3.4613,3.4614,3.462,3.4751,3.4783,3.4869,3.4704,3.4706,3.4707,0,3.4864,3.4855,3.4898,3.4863,3.4865,3.4881,3.4871,3.4875,3.4854,3.4834,3.4827,3.4785,3.4803,3.4749,3.4773,3.4739,3.4738,3.4725,3.4727,3.4725,3.4666,3.4752,3.4895,3.4908,3.4725,3.4723,3.4722,0,3.4975,3.4974,3.4999,3.4992,3.4952,3.4965,3.4949,3.4926,3.4924,3.4915,3.4913,3.4907,3.4903,3.49,3.4857,3.4822,3.4886,3.4829,3.487,3.4871,3.4885,3.4885,3.503,3.4887,3.4887,3.4886,3.4886,0,3.5084,3.5112,3.5048,3.5064,3.5094,3.5042,3.5073,3.5051,3.503,3.504,3.4986,3.4997,3.494,3.4945,3.4912,3.4937,3.4936,3.492,3.4911,3.4924,3.4926,3.4923,3.4916,3.489,3.4889,3.4888,3.4888,0,3.5212,3.5171,3.5194,3.5154,3.5145,3.5169,3.5134,3.5147,3.5118,3.5132,3.5132,3.5086,3.5089,3.5047,3.5041,3.5019,3.5058,3.5038,3.5065,3.5058,3.5101,3.5098,3.5249,3.5265,3.5113,3.5114,3.5116,0,3.5284,3.5304,3.5266,3.5269,3.5255,3.5261,3.5258,3.5208,3.5208,3.5186,3.5201,3.5199,3.5195,3.5203,3.5169,3.5165,3.5144,3.5197,3.5143,3.5156,3.5144,3.5143,3.5145,3.5209,3.5211,3.5212,3.5213,0,3.5415,3.5394,3.5392,3.5384,3.5383,3.5374,3.5362,3.5367,3.5312,3.5315,3.5317,3.5314,3.5308,3.5306,3.5296,3.5279,3.5237,3.5231,3.524,3.5254,3.5268,3.526,3.5095,3.5227,3.5226,3.5225,3.5224,3.5224,3.5517,3.5532,3.5507,3.5508,3.5493,3.5483,3.5492,3.5464,3.5465,3.5455,3.5426,3.5433,3.5411,3.5392,3.5379,3.5384,3.5358,3.5371,3.5374,3.5378,3.5386,3.5268,3.5382,3.5382,3.5381,3.5381,3.538,0,3.5645,3.5626,3.5627,3.5611,3.5611,3.5571,3.5555,3.5558,3.5565,3.5548,3.5545,3.5547,3.5545,3.5512,3.5506,3.5516,3.5497,3.5516,3.5515,3.5512,3.541,3.5402,3.5532,3.5532,3.5532,3.5532,3.5532,3.5532,3.5711,3.5734,3.571,3.5725,3.5705,3.5711,3.5705,3.5696,3.5682,3.5686,3.5684,3.5662,3.5639,3.5631,3.5628,3.5618,3.5618,3.5644,3.5628,3.5534,3.5519,3.5505,3.5497,3.5645,3.5645,3.5728,3.5729,3.573]}]]